map of GYN home
GYN - Airport
Location
City:  Goiânia, Goiás, Brazil
Name:Santa Genoveva Airport
ICAO:SBGO
IATA:GYN

Details
Type:Airport (Aerodrome, Airfield)
Use:Public/Civil
Latitude:16°37'55"S (-16.632032)
Longitude:49°13'14"W (-49.220685)
Datum:WGS 1984
Elevation:2450 ft (747 m)
Variation:20.87°W (WMM2015 magnetic declination)
-0.11° annual change
Runways:1
Longest:8204 × 148 ft (2501 × 45 m), paved

Time
Time Zone:UTC-3 (DST-2)
Local Time:

Weather
METAR:SBGO 090700Z 00000KT 9999 FEW045 20/19 Q1014
TAF:SBGO 090400Z 0906/1006 32007KT CAVOK TN21/0908Z TX31/0917Z PROB30
TEMPO 0909/0911 SCT010
BECMG 0912/0914 SCT035 FEW040TCU
TEMPO 0916/0920 VCTS SCT035 FEW040CB
BECMG 1000/1002 VRB02KT 9000 NSC
RMK PDF

Related Locations
Nearby:
Farthest:VRC: 11959 mi / 19246 km
Virac, Catanduanes Island, PH

Find:

   beyond  
but within

Other Information
Maps:
NOTAMs:
Links:
Sources:

  
flag of Brazil
flag of Goiás
flag of Goiânia
  

Sectional Chart

Flight Planning
at skyvector.com

Satellite Image

Google Maps Satellite view

 

Copyright © 2004-2016 Karl L. Swartz. All rights reserved.
The Great Circle Mapper name and logo are trademarks of the Great Circle Mapper.
All other trademarks mentioned herein belong to their respective owners.
Please see credits for attibutions and further copyright information.

  Follow gcmap on Facebook Follow gcmap on Twitter Follow gcmap on Google+ GCmap on LinkedIn

hCard Microformat

Geo Microformat